TimeEDT,TemperatureF,Dew PointF,Humidity,Sea Level PressureIn,VisibilityMPH,Wind Direction,Wind SpeedMPH,Gust SpeedMPH,PrecipitationIn,Events,Conditions,WindDirDegrees,DateUTC
12:54 AM,59.0,55.9,90,30.22,10.0,Calm,Calm,-,N/A,,Clear,0,2013-04-18 04:54:00
1:54 AM,60.1,57.0,90,30.19,10.0,South,3.5,-,N/A,,Clear,180,2013-04-18 05:54:00
2:54 AM,61.0,57.9,90,30.18,10.0,Calm,Calm,-,N/A,,Clear,0,2013-04-18 06:54:00
3:41 AM,57.2,55.4,94,30.18,1.2,Calm,Calm,-,N/A,,Clear,0,2013-04-18 07:41:00
3:44 AM,57.2,55.4,94,30.18,0.5,Calm,Calm,-,N/A,Fog,Fog,0,2013-04-18 07:44:00
3:54 AM,57.9,55.0,90,30.18,0.5,Calm,Calm,-,N/A,Fog,Fog,0,2013-04-18 07:54:00
4:06 AM,57.2,55.4,94,30.19,1.0,Calm,Calm,-,N/A,,Clear,0,2013-04-18 08:06:00
4:19 AM,59.0,55.4,88,30.18,3.0,Calm,Calm,-,N/A,,Clear,0,2013-04-18 08:19:00
4:23 AM,59.0,55.4,88,30.18,1.8,Calm,Calm,-,N/A,,Clear,0,2013-04-18 08:23:00
4:32 AM,57.2,55.4,94,30.19,4.0,Calm,Calm,-,N/A,,Clear,0,2013-04-18 08:32:00
4:54 AM,55.9,54.0,93,30.19,10.0,Calm,Calm,-,N/A,,Clear,0,2013-04-18 08:54:00
5:37 AM,57.2,55.4,94,30.18,1.5,Calm,Calm,-,N/A,,Clear,0,2013-04-18 09:37:00
5:44 AM,57.2,55.4,94,30.19,0.5,Calm,Calm,-,N/A,Fog,Fog,0,2013-04-18 09:44:00
5:54 AM,57.0,55.0,93,30.19,7.0,Calm,Calm,-,N/A,,Clear,0,2013-04-18 09:54:00
6:54 AM,57.0,55.0,93,30.21,7.0,Calm,Calm,-,0.01,,Clear,0,2013-04-18 10:54:00
6:56 AM,55.4,55.4,100,30.21,1.0,Calm,Calm,-,N/A,,Mist,0,2013-04-18 10:56:00
7:01 AM,55.4,53.6,94,30.21,7.0,Calm,Calm,-,N/A,,Clear,0,2013-04-18 11:01:00
7:54 AM,63.0,61.0,93,30.22,7.0,Calm,Calm,-,N/A,,Clear,0,2013-04-18 11:54:00
8:54 AM,71.1,63.0,75,30.22,10.0,SE,3.5,-,N/A,,Clear,140,2013-04-18 12:54:00
9:54 AM,75.0,61.0,62,30.23,10.0,South,8.1,16.1,N/A,,Partly Cloudy,180,2013-04-18 13:54:00
10:54 AM,75.0,57.9,55,30.23,10.0,SE,5.8,-,N/A,,Overcast,140,2013-04-18 14:54:00
11:54 AM,75.9,60.1,58,30.22,10.0,ESE,9.2,-,N/A,,Mostly Cloudy,110,2013-04-18 15:54:00
12:54 PM,77.0,57.9,52,30.21,10.0,ESE,9.2,-,N/A,,Mostly Cloudy,110,2013-04-18 16:54:00
1:54 PM,78.1,59.0,52,30.20,9.0,SSE,12.7,19.6,N/A,,Mostly Cloudy,150,2013-04-18 17:54:00
2:54 PM,79.0,57.9,48,30.18,9.0,South,10.4,17.3,N/A,,Partly Cloudy,180,2013-04-18 18:54:00
3:54 PM,77.0,57.0,50,30.16,10.0,South,10.4,-,N/A,,Scattered Clouds,170,2013-04-18 19:54:00
4:54 PM,79.0,57.9,48,30.16,10.0,SSW,10.4,-,N/A,,Partly Cloudy,200,2013-04-18 20:54:00
5:54 PM,75.9,57.9,54,30.14,10.0,SE,10.4,-,N/A,,Partly Cloudy,140,2013-04-18 21:54:00
6:54 PM,73.9,59.0,59,30.13,10.0,South,11.5,-,N/A,,Scattered Clouds,170,2013-04-18 22:54:00
7:54 PM,71.1,60.1,68,30.13,10.0,South,6.9,-,N/A,,Clear,170,2013-04-18 23:54:00
8:54 PM,68.0,60.1,76,30.14,10.0,South,4.6,-,N/A,,Scattered Clouds,170,2013-04-19 00:54:00
9:54 PM,69.1,61.0,75,30.14,10.0,SSE,4.6,-,N/A,,Overcast,160,2013-04-19 01:54:00
10:54 PM,69.1,61.0,75,30.12,10.0,SSE,5.8,-,N/A,,Mostly Cloudy,160,2013-04-19 02:54:00
11:54 PM,69.1,62.1,78,30.12,10.0,SSE,4.6,-,N/A,,Overcast,160,2013-04-19 03:54:00